ARG1817 SAVE-SABE

Flight info

Callsign ARG1817
Flight time 1h 59m
Altitude 35000
Route OPROS DCT TOMIV UT657 BCA UW22 VALOS VALOS9Q
Aircraft B738/M-SDE2E3FGHIRWXY/LB1

Departure

Time 2026-04-20 19:23
Airport Esquel Brigadier Antonio Parodi International Airport (SAVE)

Arrival

Time 2026-04-20 21:23
Airport Aeroparque Jorge Newbery (SABE)
Time Latitude Longitude Altitude Speed Heading
2026-04-20 18:32 -42.90666 -71.14681 2635 ft 0 kts 329°
2026-04-20 18:37 -42.90666 -71.14680 2635 ft 0 kts 327°
2026-04-20 19:15 -42.90675 -71.14673 2635 ft 4 kts 326°
2026-04-20 19:15 -42.90685 -71.14660 2635 ft 4 kts 293°
2026-04-20 19:15 -42.90686 -71.14627 2635 ft 4 kts 256°
2026-04-20 19:16 -42.90684 -71.14606 2635 ft 0 kts 277°
2026-04-20 19:19 -42.90684 -71.14610 2635 ft 1 kts 272°
2026-04-20 19:19 -42.90676 -71.14619 2635 ft 2 kts 343°
2026-04-20 19:20 -42.90669 -71.14612 2635 ft 2 kts 46°
2026-04-20 19:20 -42.90671 -71.14599 2635 ft 1 kts 116°
2026-04-20 19:20 -42.90705 -71.14586 2635 ft 7 kts 163°
2026-04-20 19:20 -42.90751 -71.14572 2636 ft 6 kts 181°
2026-04-20 19:21 -42.90789 -71.14592 2636 ft 6 kts 205°
2026-04-20 19:21 -42.90827 -71.14615 2636 ft 6 kts 205°
2026-04-20 19:21 -42.90863 -71.14638 2636 ft 6 kts 205°
2026-04-20 19:21 -42.90887 -71.14627 2636 ft 4 kts 105°
2026-04-20 19:22 -42.90880 -71.14605 2636 ft 0 kts 58°
2026-04-20 19:22 -42.90879 -71.14603 2636 ft 6 kts 58°
2026-04-20 19:23 -42.90711 -71.14249 2636 ft 84 kts 57°
2026-04-20 19:23 -42.90262 -71.13305 2638 ft 151 kts 57°
2026-04-20 19:23 -42.89601 -71.11889 2836 ft 191 kts 58°
2026-04-20 19:23 -42.88908 -71.10368 3767 ft 190 kts 58°
2026-04-20 19:24 -42.88203 -71.08777 4569 ft 199 kts 57°
2026-04-20 19:24 -42.87502 -71.07091 5200 ft 209 kts 59°
2026-04-20 19:24 -42.86799 -71.05320 5726 ft 220 kts 59°
2026-04-20 19:24 -42.86036 -71.03416 6009 ft 237 kts 59°
2026-04-20 19:25 -42.85220 -71.01339 6242 ft 259 kts 60°
2026-04-20 19:25 -42.84349 -70.99100 6522 ft 280 kts 59°
2026-04-20 19:25 -42.83380 -70.96710 7052 ft 292 kts 58°
2026-04-20 19:25 -42.82389 -70.94296 7926 ft 290 kts 59°
2026-04-20 19:26 -42.81401 -70.91888 8743 ft 292 kts 59°
2026-04-20 19:26 -42.80399 -70.89446 9443 ft 298 kts 60°
2026-04-20 19:26 -42.79375 -70.86946 10284 ft 298 kts 61°
2026-04-20 19:26 -42.78357 -70.84466 10730 ft 314 kts 61°
2026-04-20 19:27 -42.77240 -70.81741 10909 ft 337 kts 61°
2026-04-20 19:27 -42.76078 -70.78910 11170 ft 355 kts 61°
2026-04-20 19:27 -42.74860 -70.75947 11763 ft 361 kts 61°
2026-04-20 19:27 -42.73617 -70.72922 12537 ft 362 kts 61°
2026-04-20 19:28 -42.72398 -70.69960 13287 ft 364 kts 62°
2026-04-20 19:28 -42.71140 -70.66906 14015 ft 367 kts 62°
2026-04-20 19:28 -42.69888 -70.63869 14651 ft 370 kts 62°
2026-04-20 19:28 -42.68626 -70.60809 15256 ft 373 kts 62°
2026-04-20 19:29 -42.67348 -70.57712 15853 ft 377 kts 62°
2026-04-20 19:29 -42.66056 -70.54588 16451 ft 381 kts 62°
2026-04-20 19:29 -42.64750 -70.51435 17057 ft 384 kts 62°
2026-04-20 19:29 -42.63437 -70.48262 17660 ft 388 kts 62°
2026-04-20 19:30 -42.62115 -70.45049 18248 ft 391 kts 63°
2026-04-20 19:30 -42.60790 -70.41815 18774 ft 394 kts 63°
2026-04-20 19:30 -42.59450 -70.38544 19256 ft 398 kts 63°
2026-04-20 19:30 -42.58098 -70.35250 19754 ft 402 kts 63°
2026-04-20 19:31 -42.56732 -70.31923 20227 ft 405 kts 63°
2026-04-20 19:31 -42.55352 -70.28567 20704 ft 409 kts 63°
2026-04-20 19:31 -42.53960 -70.25188 21170 ft 413 kts 63°
2026-04-20 19:31 -42.52552 -70.21776 21628 ft 416 kts 63°
2026-04-20 19:32 -42.51133 -70.18341 22087 ft 419 kts 63°
2026-04-20 19:32 -42.49703 -70.14882 22558 ft 422 kts 63°
2026-04-20 19:32 -42.48260 -70.11397 22998 ft 426 kts 63°
2026-04-20 19:32 -42.46804 -70.07887 23409 ft 429 kts 63°
2026-04-20 19:33 -42.45335 -70.04347 23811 ft 433 kts 63°
2026-04-20 19:33 -42.43856 -70.00787 24216 ft 434 kts 63°
2026-04-20 19:33 -42.42371 -69.97221 24605 ft 436 kts 63°
2026-04-20 19:33 -42.40878 -69.93639 24959 ft 438 kts 63°
2026-04-20 19:34 -42.39378 -69.90043 25286 ft 441 kts 63°
2026-04-20 19:34 -42.37863 -69.86415 25622 ft 443 kts 63°
2026-04-20 19:34 -42.36342 -69.82778 26001 ft 445 kts 63°
2026-04-20 19:34 -42.34817 -69.79134 26362 ft 446 kts 63°
2026-04-20 19:35 -42.33283 -69.75477 26684 ft 449 kts 63°
2026-04-20 19:35 -42.31741 -69.71802 26981 ft 452 kts 63°
2026-04-20 19:35 -42.30184 -69.68097 27291 ft 454 kts 63°
2026-04-20 19:35 -42.28619 -69.64378 27599 ft 456 kts 63°
2026-04-20 19:36 -42.27049 -69.60651 27906 ft 458 kts 63°
2026-04-20 19:36 -42.25470 -69.56909 28203 ft 460 kts 63°
2026-04-20 19:36 -42.23892 -69.53173 28489 ft 462 kts 63°
2026-04-20 19:36 -42.22296 -69.49399 28794 ft 464 kts 63°
2026-04-20 19:37 -42.20695 -69.45619 29105 ft 465 kts 62°
2026-04-20 19:37 -42.19088 -69.41828 29374 ft 467 kts 62°
2026-04-20 19:37 -42.17470 -69.38018 29636 ft 469 kts 62°
2026-04-20 19:37 -42.15847 -69.34199 29995 ft 469 kts 62°
2026-04-20 19:38 -42.14225 -69.30391 30382 ft 467 kts 62°
2026-04-20 19:38 -42.12611 -69.26605 30747 ft 465 kts 62°
2026-04-20 19:38 -42.10999 -69.22830 31090 ft 464 kts 63°
2026-04-20 19:38 -42.09395 -69.19077 31449 ft 462 kts 63°
2026-04-20 19:39 -42.07799 -69.15351 31927 ft 457 kts 63°
2026-04-20 19:39 -42.06220 -69.11665 32329 ft 454 kts 63°
2026-04-20 19:39 -42.04644 -69.07989 32593 ft 454 kts 63°
2026-04-20 19:39 -42.03063 -69.04306 32814 ft 455 kts 63°
2026-04-20 19:40 -42.01994 -69.01815 33000 ft 454 kts 63°
2026-04-20 19:40 -42.00415 -68.98146 33309 ft 453 kts 63°
2026-04-20 19:40 -41.98841 -68.94494 33641 ft 451 kts 63°
2026-04-20 19:40 -41.97268 -68.90848 33930 ft 450 kts 63°
2026-04-20 19:41 -41.95699 -68.87214 34180 ft 450 kts 63°
2026-04-20 19:41 -41.94126 -68.83576 34458 ft 448 kts 63°
2026-04-20 19:41 -41.92568 -68.79984 34837 ft 443 kts 63°
2026-04-20 19:41 -41.91018 -68.76410 35060 ft 443 kts 63°
2026-04-20 19:42 -41.89463 -68.72824 35096 ft 446 kts 63°
2026-04-20 19:42 -41.86327 -68.65607 35106 ft 447 kts 63°
2026-04-20 19:43 -41.83725 -68.59636 35102 ft 445 kts 63°
2026-04-20 19:43 -41.80081 -68.51293 35105 ft 442 kts 63°
2026-04-20 19:44 -41.76975 -68.44201 35102 ft 440 kts 63°
2026-04-20 19:44 -41.73879 -68.37148 35115 ft 438 kts 63°
2026-04-20 19:45 -41.70791 -68.30130 35111 ft 437 kts 63°
2026-04-20 19:45 -41.67707 -68.23136 35111 ft 436 kts 63°
2026-04-20 19:46 -41.64624 -68.16159 35123 ft 436 kts 63°
2026-04-20 19:46 -41.61532 -68.09181 35107 ft 436 kts 63°
2026-04-20 19:47 -41.58432 -68.02198 35103 ft 437 kts 63°
2026-04-20 19:47 -41.55324 -67.95212 35113 ft 438 kts 63°
2026-04-20 19:48 -41.52209 -67.88227 35115 ft 438 kts 63°
2026-04-20 19:48 -41.49097 -67.81228 35103 ft 439 kts 63°
2026-04-20 19:49 -41.45984 -67.74225 35113 ft 439 kts 63°
2026-04-20 19:49 -41.42867 -67.67226 35114 ft 439 kts 63°
2026-04-20 19:50 -41.39746 -67.60239 35104 ft 439 kts 63°
2026-04-20 19:50 -41.36617 -67.53250 35130 ft 439 kts 62°
2026-04-20 19:51 -41.33487 -67.46275 35114 ft 439 kts 62°
2026-04-20 19:51 -41.30355 -67.39313 35113 ft 438 kts 62°
2026-04-20 19:52 -41.27228 -67.32378 35119 ft 436 kts 62°
2026-04-20 19:52 -41.24109 -67.25475 35118 ft 435 kts 62°
2026-04-20 19:53 -41.20990 -67.18587 35118 ft 434 kts 62°
2026-04-20 19:53 -41.17873 -67.11720 35114 ft 434 kts 62°
2026-04-20 19:54 -41.14756 -67.04868 35117 ft 433 kts 62°
2026-04-20 19:54 -41.11640 -66.98033 35115 ft 433 kts 61°
2026-04-20 19:55 -41.08516 -66.91194 35115 ft 433 kts 61°
2026-04-20 19:55 -41.05388 -66.84360 35112 ft 434 kts 60°
2026-04-20 19:56 -41.02242 -66.77512 35118 ft 435 kts 60°
2026-04-20 19:56 -40.99047 -66.70650 35137 ft 441 kts 59°
2026-04-20 19:57 -40.95784 -66.63689 35134 ft 447 kts 59°
2026-04-20 19:57 -40.92491 -66.56664 35124 ft 451 kts 58°
2026-04-20 19:58 -40.89168 -66.49586 35130 ft 454 kts 57°
2026-04-20 19:58 -40.85823 -66.42471 35136 ft 457 kts 57°
2026-04-20 19:59 -40.82463 -66.35340 35134 ft 458 kts 56°
2026-04-20 19:59 -40.79097 -66.28213 35132 ft 457 kts 57°
2026-04-20 20:00 -40.75738 -66.21115 35126 ft 455 kts 56°
2026-04-20 20:00 -40.72382 -66.14052 35139 ft 454 kts 56°
2026-04-20 20:01 -40.69036 -66.07014 35144 ft 452 kts 56°
2026-04-20 20:01 -40.65695 -66.00003 35139 ft 452 kts 56°
2026-04-20 20:02 -40.62354 -65.93010 35137 ft 451 kts 56°
2026-04-20 20:02 -40.59010 -65.86028 35144 ft 451 kts 55°
2026-04-20 20:03 -40.55662 -65.79054 35150 ft 451 kts 55°
2026-04-20 20:03 -40.52306 -65.72078 35154 ft 452 kts 54°
2026-04-20 20:04 -40.48938 -65.65093 35156 ft 453 kts 54°
2026-04-20 20:04 -40.45559 -65.58099 35146 ft 454 kts 54°
2026-04-20 20:05 -40.42170 -65.51102 35153 ft 454 kts 54°
2026-04-20 20:05 -40.38772 -65.44103 35154 ft 455 kts 54°
2026-04-20 20:06 -40.35365 -65.37100 35153 ft 456 kts 54°
2026-04-20 20:06 -40.31953 -65.30101 35155 ft 456 kts 54°
2026-04-20 20:07 -40.28533 -65.23104 35154 ft 456 kts 53°
2026-04-20 20:07 -40.25107 -65.16108 35152 ft 457 kts 53°
2026-04-20 20:08 -40.21668 -65.09104 35159 ft 458 kts 53°
2026-04-20 20:08 -40.18217 -65.02089 35153 ft 459 kts 53°
2026-04-20 20:09 -40.14754 -64.95062 35142 ft 460 kts 52°
2026-04-20 20:09 -40.11278 -64.88034 35153 ft 461 kts 52°
2026-04-20 20:10 -40.07794 -64.80993 35158 ft 462 kts 52°
2026-04-20 20:10 -40.04298 -64.73940 35158 ft 463 kts 52°
2026-04-20 20:11 -40.00819 -64.66850 35159 ft 464 kts 52°
2026-04-20 20:11 -39.97345 -64.59756 35163 ft 464 kts 52°
2026-04-20 20:12 -39.93841 -64.52623 35156 ft 464 kts 52°
2026-04-20 20:12 -39.90380 -64.45599 35164 ft 463 kts 52°
2026-04-20 20:13 -39.85137 -64.34986 35144 ft 462 kts 51°
2026-04-20 20:13 -39.81686 -64.28025 35161 ft 460 kts 50°
2026-04-20 20:14 -39.78195 -64.21002 35171 ft 459 kts 50°
2026-04-20 20:14 -39.74734 -64.14051 35168 ft 458 kts 50°
2026-04-20 20:15 -39.71274 -64.07120 35165 ft 457 kts 50°
2026-04-20 20:15 -39.67815 -64.00203 35160 ft 456 kts 50°
2026-04-20 20:16 -39.64359 -63.93308 35173 ft 456 kts 49°
2026-04-20 20:16 -39.60895 -63.86412 35181 ft 456 kts 49°
2026-04-20 20:17 -39.58016 -63.80692 35183 ft 456 kts 49°
2026-04-20 20:17 -39.54543 -63.73806 35162 ft 457 kts 49°
2026-04-20 20:18 -39.51063 -63.66918 35172 ft 457 kts 49°
2026-04-20 20:18 -39.47576 -63.60034 35185 ft 457 kts 49°
2026-04-20 20:19 -39.44084 -63.53153 35184 ft 458 kts 49°
2026-04-20 20:19 -39.40582 -63.46264 35179 ft 458 kts 49°
2026-04-20 20:20 -39.37076 -63.39386 35176 ft 458 kts 48°
2026-04-20 20:20 -39.33544 -63.32542 35175 ft 458 kts 47°
2026-04-20 20:21 -39.29997 -63.25718 35181 ft 458 kts 47°
2026-04-20 20:21 -39.26447 -63.18894 35188 ft 458 kts 47°
2026-04-20 20:22 -39.22890 -63.12063 35157 ft 458 kts 47°
2026-04-20 20:22 -39.19333 -63.05243 35181 ft 458 kts 47°
2026-04-20 20:23 -39.15774 -62.98433 35183 ft 458 kts 47°
2026-04-20 20:23 -39.12206 -62.91622 35181 ft 459 kts 47°
2026-04-20 20:24 -39.08635 -62.84819 35181 ft 458 kts 46°
2026-04-20 20:24 -39.05063 -62.78028 35182 ft 458 kts 46°
2026-04-20 20:25 -39.01492 -62.71254 35179 ft 458 kts 46°
2026-04-20 20:25 -38.97913 -62.64479 35185 ft 458 kts 46°
2026-04-20 20:26 -38.94332 -62.57715 35186 ft 458 kts 46°
2026-04-20 20:26 -38.90746 -62.50955 35164 ft 458 kts 45°
2026-04-20 20:27 -38.87159 -62.44205 35187 ft 458 kts 45°
2026-04-20 20:27 -38.83566 -62.37461 35201 ft 458 kts 45°
2026-04-20 20:28 -38.79966 -62.30717 35207 ft 458 kts 45°
2026-04-20 20:28 -38.76362 -62.23975 35213 ft 459 kts 45°
2026-04-20 20:29 -38.72690 -62.17318 35201 ft 450 kts 38°
2026-04-20 20:29 -38.70546 -62.14485 35204 ft 436 kts 29°
2026-04-20 20:29 -38.68166 -62.12183 35217 ft 426 kts 24°
2026-04-20 20:30 -38.63302 -62.07858 35179 ft 426 kts 23°
2026-04-20 20:30 -38.58439 -62.03514 35181 ft 427 kts 24°
2026-04-20 20:31 -38.53580 -61.99134 35182 ft 428 kts 24°
2026-04-20 20:31 -38.48724 -61.94745 35184 ft 428 kts 24°
2026-04-20 20:32 -38.43862 -61.90354 35151 ft 428 kts 23°
2026-04-20 20:32 -38.38972 -61.85946 35173 ft 428 kts 23°
2026-04-20 20:33 -38.34111 -61.81575 35182 ft 428 kts 23°
2026-04-20 20:33 -38.29237 -61.77199 35185 ft 429 kts 23°
2026-04-20 20:34 -38.24353 -61.72821 35190 ft 430 kts 23°
2026-04-20 20:34 -38.19497 -61.68474 35191 ft 430 kts 23°
2026-04-20 20:35 -38.14576 -61.64075 35184 ft 429 kts 23°
2026-04-20 20:35 -38.09689 -61.59716 35180 ft 429 kts 23°
2026-04-20 20:36 -38.04796 -61.55358 35179 ft 430 kts 23°
2026-04-20 20:36 -37.99902 -61.51005 35178 ft 430 kts 23°
2026-04-20 20:37 -37.95010 -61.46665 35179 ft 429 kts 23°
2026-04-20 20:37 -37.90114 -61.42333 35157 ft 430 kts 23°
2026-04-20 20:38 -37.85197 -61.37991 35160 ft 431 kts 23°
2026-04-20 20:38 -37.80288 -61.33658 35162 ft 430 kts 23°
2026-04-20 20:39 -37.75390 -61.29340 35160 ft 429 kts 23°
2026-04-20 20:39 -37.70489 -61.25030 35168 ft 429 kts 23°
2026-04-20 20:40 -37.65589 -61.20728 35165 ft 429 kts 23°
2026-04-20 20:40 -37.60681 -61.16425 35149 ft 430 kts 23°
2026-04-20 20:41 -37.55771 -61.12127 35160 ft 430 kts 23°
2026-04-20 20:41 -37.50852 -61.07829 35151 ft 430 kts 23°
2026-04-20 20:42 -37.45927 -61.03532 35139 ft 431 kts 23°
2026-04-20 20:42 -37.40995 -60.99235 35153 ft 432 kts 23°
2026-04-20 20:43 -37.36050 -60.94936 35151 ft 432 kts 23°
2026-04-20 20:43 -37.31096 -60.90634 35154 ft 433 kts 23°
2026-04-20 20:44 -37.26134 -60.86333 35148 ft 434 kts 23°
2026-04-20 20:44 -37.21163 -60.82030 35150 ft 434 kts 23°
2026-04-20 20:45 -37.16184 -60.77729 35149 ft 435 kts 23°
2026-04-20 20:45 -37.11198 -60.73428 35131 ft 436 kts 23°
2026-04-20 20:46 -37.06205 -60.69128 35129 ft 436 kts 23°
2026-04-20 20:46 -37.01215 -60.64836 35136 ft 435 kts 23°
2026-04-20 20:47 -36.96227 -60.60554 35141 ft 434 kts 23°
2026-04-20 20:47 -36.91245 -60.56284 35139 ft 434 kts 23°
2026-04-20 20:48 -36.86264 -60.52022 35136 ft 434 kts 23°
2026-04-20 20:48 -36.81285 -60.47767 35133 ft 433 kts 23°
2026-04-20 20:49 -36.76314 -60.43525 35129 ft 432 kts 23°
2026-04-20 20:49 -36.71344 -60.39294 35127 ft 433 kts 23°
2026-04-20 20:50 -36.66358 -60.35059 35132 ft 434 kts 23°
2026-04-20 20:50 -36.61354 -60.30813 35127 ft 436 kts 23°
2026-04-20 20:51 -36.56332 -60.26554 35121 ft 437 kts 23°
2026-04-20 20:51 -36.51297 -60.22294 35102 ft 438 kts 24°
2026-04-20 20:52 -36.46251 -60.18052 35113 ft 438 kts 23°
2026-04-20 20:52 -36.41200 -60.13825 35107 ft 438 kts 24°
2026-04-20 20:53 -36.36151 -60.09603 35112 ft 438 kts 24°
2026-04-20 20:53 -36.31098 -60.05381 35114 ft 438 kts 24°
2026-04-20 20:54 -36.26040 -60.01160 35121 ft 438 kts 24°
2026-04-20 20:54 -36.20973 -59.96939 35099 ft 439 kts 24°
2026-04-20 20:55 -36.16760 -59.93433 35093 ft 439 kts 24°
2026-04-20 20:55 -36.14215 -59.91321 34753 ft 442 kts 24°
2026-04-20 20:55 -36.11682 -59.89214 34411 ft 436 kts 24°
2026-04-20 20:56 -36.09179 -59.87131 33970 ft 431 kts 24°
2026-04-20 20:56 -36.06703 -59.85074 33528 ft 427 kts 24°
2026-04-20 20:56 -36.04248 -59.83037 33109 ft 423 kts 25°
2026-04-20 20:56 -36.01818 -59.81025 32716 ft 419 kts 25°
2026-04-20 20:57 -35.99410 -59.79033 32310 ft 415 kts 25°
2026-04-20 20:57 -35.97020 -59.77058 31886 ft 411 kts 25°
2026-04-20 20:57 -35.94650 -59.75102 31501 ft 408 kts 25°
2026-04-20 20:57 -35.92299 -59.73162 31128 ft 405 kts 26°
2026-04-20 20:58 -35.89964 -59.71238 30753 ft 402 kts 26°
2026-04-20 20:58 -35.87647 -59.69329 30382 ft 400 kts 26°
2026-04-20 20:58 -35.85339 -59.67430 29979 ft 397 kts 26°
2026-04-20 20:58 -35.83049 -59.65545 29544 ft 395 kts 26°
2026-04-20 20:59 -35.80773 -59.63673 29148 ft 391 kts 26°
2026-04-20 20:59 -35.78521 -59.61821 28757 ft 388 kts 26°
2026-04-20 20:59 -35.76272 -59.59974 28356 ft 385 kts 26°
2026-04-20 20:59 -35.74055 -59.58155 27969 ft 382 kts 26°
2026-04-20 21:00 -35.71853 -59.56349 27588 ft 379 kts 26°
2026-04-20 21:00 -35.69665 -59.54556 27216 ft 377 kts 26°
2026-04-20 21:00 -35.67526 -59.52805 26839 ft 376 kts 26°
2026-04-20 21:00 -35.65359 -59.51032 26483 ft 374 kts 26°
2026-04-20 21:01 -35.63183 -59.49255 26123 ft 379 kts 26°
2026-04-20 21:01 -35.60948 -59.47437 25755 ft 390 kts 26°
2026-04-20 21:01 -35.58673 -59.45581 25335 ft 392 kts 26°
2026-04-20 21:01 -35.56411 -59.43730 24946 ft 390 kts 27°
2026-04-20 21:02 -35.54159 -59.41887 24559 ft 388 kts 27°
2026-04-20 21:02 -35.51910 -59.40051 24159 ft 387 kts 27°
2026-04-20 21:02 -35.49674 -59.38228 23768 ft 385 kts 27°
2026-04-20 21:02 -35.47442 -59.36411 23325 ft 384 kts 27°
2026-04-20 21:03 -35.45222 -59.34608 22907 ft 381 kts 26°
2026-04-20 21:03 -35.43074 -59.32956 22523 ft 377 kts 25°
2026-04-20 21:03 -35.40800 -59.31272 22103 ft 374 kts 25°
2026-04-20 21:03 -35.38578 -59.29641 21741 ft 370 kts 25°
2026-04-20 21:04 -35.36377 -59.28022 21368 ft 368 kts 25°
2026-04-20 21:04 -35.34196 -59.26410 21002 ft 365 kts 25°
2026-04-20 21:04 -35.32034 -59.24807 20634 ft 363 kts 25°
2026-04-20 21:04 -35.29882 -59.23208 20264 ft 360 kts 25°
2026-04-20 21:05 -35.27748 -59.21622 19903 ft 358 kts 25°
2026-04-20 21:05 -35.25622 -59.20042 19542 ft 356 kts 25°
2026-04-20 21:05 -35.23510 -59.18473 19182 ft 354 kts 25°
2026-04-20 21:05 -35.21409 -59.16915 18823 ft 353 kts 25°
2026-04-20 21:06 -35.19304 -59.15382 18453 ft 350 kts 23°
2026-04-20 21:06 -35.17156 -59.13996 18047 ft 347 kts 21°
2026-04-20 21:06 -35.15005 -59.12683 17660 ft 345 kts 21°
2026-04-20 21:06 -35.12859 -59.11386 17276 ft 343 kts 21°
2026-04-20 21:07 -35.10731 -59.10094 16917 ft 341 kts 22°
2026-04-20 21:07 -35.08617 -59.08801 16565 ft 339 kts 22°
2026-04-20 21:07 -35.06517 -59.07510 16208 ft 337 kts 22°
2026-04-20 21:07 -35.04431 -59.06224 15858 ft 335 kts 22°
2026-04-20 21:08 -35.02352 -59.04940 15509 ft 334 kts 22°
2026-04-20 21:08 -35.00283 -59.03662 15159 ft 333 kts 23°
2026-04-20 21:08 -34.98222 -59.02389 14805 ft 331 kts 23°
2026-04-20 21:08 -34.96232 -59.01160 14467 ft 330 kts 23°
2026-04-20 21:09 -34.94188 -58.99899 14116 ft 329 kts 23°
2026-04-20 21:09 -34.92150 -58.98642 13751 ft 328 kts 23°
2026-04-20 21:09 -34.90119 -58.97399 13344 ft 326 kts 22°
2026-04-20 21:09 -34.88060 -58.96248 12935 ft 325 kts 21°
2026-04-20 21:10 -34.86000 -58.95145 12559 ft 323 kts 21°
2026-04-20 21:10 -34.83950 -58.94049 12199 ft 320 kts 21°
2026-04-20 21:10 -34.81917 -58.92954 11855 ft 318 kts 21°
2026-04-20 21:10 -34.79902 -58.91860 11512 ft 317 kts 22°
2026-04-20 21:11 -34.77896 -58.90769 11169 ft 315 kts 22°
2026-04-20 21:11 -34.75898 -58.89682 10817 ft 314 kts 21°
2026-04-20 21:11 -34.73902 -58.88598 10470 ft 313 kts 22°
2026-04-20 21:11 -34.71941 -58.87534 10277 ft 306 kts 22°
2026-04-20 21:12 -34.70025 -58.86496 10149 ft 297 kts 22°
2026-04-20 21:12 -34.68216 -58.85515 9980 ft 291 kts 21°
2026-04-20 21:12 -34.66429 -58.84548 9678 ft 290 kts 21°
2026-04-20 21:12 -34.64579 -58.83546 9383 ft 288 kts 22°
2026-04-20 21:13 -34.62756 -58.82560 9095 ft 286 kts 22°
2026-04-20 21:13 -34.60948 -58.81582 8813 ft 283 kts 21°
2026-04-20 21:13 -34.59154 -58.80612 8532 ft 281 kts 21°
2026-04-20 21:13 -34.57377 -58.79653 8247 ft 279 kts 22°
2026-04-20 21:14 -34.55563 -58.78872 7956 ft 275 kts
2026-04-20 21:14 -34.53680 -58.78591 7708 ft 271 kts
2026-04-20 21:14 -34.51811 -58.78419 7426 ft 269 kts
2026-04-20 21:14 -34.49944 -58.78248 7162 ft 268 kts
2026-04-20 21:15 -34.48094 -58.78060 6879 ft 266 kts
2026-04-20 21:15 -34.46254 -58.77856 6602 ft 265 kts
2026-04-20 21:15 -34.44427 -58.77643 6290 ft 261 kts
2026-04-20 21:15 -34.42644 -58.77433 6006 ft 254 kts
2026-04-20 21:16 -34.40913 -58.77228 5765 ft 246 kts
2026-04-20 21:16 -34.39238 -58.77017 5532 ft 238 kts
2026-04-20 21:16 -34.37747 -58.76233 5277 ft 237 kts 39°
2026-04-20 21:16 -34.36775 -58.74641 5043 ft 238 kts 66°
2026-04-20 21:17 -34.36501 -58.72738 4852 ft 240 kts 91°
2026-04-20 21:17 -34.36976 -58.70780 4633 ft 242 kts 118°
2026-04-20 21:17 -34.38039 -58.69210 4434 ft 241 kts 132°
2026-04-20 21:17 -34.39209 -58.67776 4222 ft 238 kts 132°
2026-04-20 21:18 -34.40366 -58.66357 4007 ft 236 kts 131°
2026-04-20 21:18 -34.41511 -58.64942 3805 ft 233 kts 131°
2026-04-20 21:18 -34.42637 -58.63545 3585 ft 230 kts 131°
2026-04-20 21:18 -34.43743 -58.62172 3409 ft 226 kts 131°
2026-04-20 21:19 -34.44837 -58.60809 3181 ft 225 kts 131°
2026-04-20 21:19 -34.45923 -58.59448 2986 ft 223 kts 129°
2026-04-20 21:19 -34.46834 -58.57971 2747 ft 215 kts 121°
2026-04-20 21:20 -34.48417 -58.55124 2294 ft 192 kts 121°
2026-04-20 21:20 -34.49141 -58.53818 2079 ft 178 kts 122°
2026-04-20 21:20 -34.49806 -58.52619 1892 ft 164 kts 121°
2026-04-20 21:20 -34.50391 -58.51564 1790 ft 146 kts 121°
2026-04-20 21:21 -34.50948 -58.50555 1642 ft 144 kts 121°
2026-04-20 21:21 -34.51488 -58.49580 1435 ft 134 kts 121°
2026-04-20 21:21 -34.52004 -58.48650 1260 ft 134 kts 120°
2026-04-20 21:21 -34.52525 -58.47709 1082 ft 137 kts 122°
2026-04-20 21:22 -34.53054 -58.46757 902 ft 134 kts 121°
2026-04-20 21:22 -34.53571 -58.45822 694 ft 132 kts 123°
2026-04-20 21:22 -34.54055 -58.44950 519 ft 121 kts 121°
2026-04-20 21:22 -34.54526 -58.44081 362 ft 123 kts 123°
2026-04-20 21:23 -34.54998 -58.43232 184 ft 120 kts 124°
2026-04-20 21:23 -34.55464 -58.42409 40 ft 117 kts 124°
2026-04-20 21:23 -34.55794 -58.41813 25 ft 39 kts 124°
2026-04-20 21:23 -34.55924 -58.41579 24 ft 31 kts 124°
2026-04-20 21:24 -34.56005 -58.41434 24 ft 13 kts 123°
2026-04-20 21:24 -34.56029 -58.41385 26 ft 3 kts 93°
2026-04-20 21:24 -34.56022 -58.41366 24 ft 2 kts 59°
2026-04-20 21:24 -34.56015 -58.41357 26 ft 2 kts 46°
2026-04-20 21:25 -34.55994 -58.41341 27 ft 4 kts 30°
2026-04-20 21:25 -34.55969 -58.41322 27 ft 4 kts 33°
2026-04-20 21:25 -34.55958 -58.41313 24 ft 1 kts 34°
2026-04-20 21:25 -34.55957 -58.41312 24 ft 1 kts 34°
2026-04-20 21:26 -34.55953 -58.41310 24 ft 1 kts 30°
2026-04-20 21:26 -34.55942 -58.41300 27 ft 3 kts 53°
2026-04-20 21:26 -34.55944 -58.41275 26 ft 3 kts 105°
2026-04-20 21:26 -34.55954 -58.41253 27 ft 3 kts 124°
2026-04-20 21:27 -34.55971 -58.41226 26 ft 5 kts 128°
2026-04-20 21:27 -34.55993 -58.41192 25 ft 6 kts 127°
2026-04-20 21:27 -34.56019 -58.41150 26 ft 5 kts 127°
2026-04-20 21:27 -34.56039 -58.41117 24 ft 4 kts 127°
2026-04-20 21:28 -34.56054 -58.41093 25 ft 3 kts 124°
2026-04-20 21:28 -34.56061 -58.41080 27 ft 1 kts 124°
2026-04-20 21:28 -34.56061 -58.41079 27 ft 0 kts 124°
2026-04-20 21:29 -34.56062 -58.41078 26 ft 0 kts 119°
2026-04-20 21:30 -34.56059 -58.41072 24 ft 1 kts 75°
2026-04-20 21:30 -34.56048 -58.41060 24 ft 2 kts 34°
2026-04-20 21:30 -34.56045 -58.41058 24 ft 0 kts 35°
2026-04-20 21:30 -34.56040 -58.41053 24 ft 3 kts 36°
2026-04-20 21:31 -34.56033 -58.41035 26 ft 3 kts 89°
2026-04-20 21:31 -34.56038 -58.41011 24 ft 3 kts 86°
2026-04-20 21:31 -34.56033 -58.41000 24 ft 3 kts 53°
2026-04-20 21:31 -34.56025 -58.40991 24 ft 2 kts 34°
2026-04-20 21:32 -34.56013 -58.40983 26 ft 2 kts 30°
2026-04-20 21:32 -34.56002 -58.40974 24 ft 2 kts 36°
2026-04-20 21:32 -34.55999 -58.40971 24 ft 0 kts 36°